Tracking 20228 objects as of 17-Jan-2020
HD Live streaming from Space Station
objects crossing your sky now

COSMOS 2251 DEB

Track COSMOS 2251 DEB now!
10-day predictions


NORAD ID: 34319
Int'l Code: 1993-036NR
Perigee: 694.8 km
Apogee: 733.7 km
Inclination: 74.0 °
Period: 98.9 minutes
Semi major axis: 7085 km
RCS: 0.023 m2 (small)
Launch date: June 16, 1993
Source: Commonwealth of Independent States (former USSR) (CIS)
Launch site: PLESETSK MISSILE AND SPACE COMPLEX (PKMTR)

Note: This is SATELLITE DEBRIS
aabbcc
Your satellite tracking list
Your tracking list is empty




NASA's NSSDC Master Catalog

Two Line Element Set (TLE):
1 34319U 93036NR  20016.37656041 +.00001268 +00000-0 +29516-3 0  9995
2 34319 074.0304 160.8488 0027444 030.1316 330.1418 14.55702844575120
Source of the keplerian elements: AFSPC